Voltar ao catálogo

FENGYUN 1C DEB

AtivoPO
NORAD 32242·DEBRIS·🇨🇳 China

Lançado May 10, 1999 de Taiyuan Satellite Launch Center

Loading…

Próximas Passagens (próximas 24 horas)

TLE

AtualizadoSource: Space-Track

Época: Sep 11, 2026, 09:04 UTC

1 32242U 99025CWQ 26254.37824491  .00000922  00000-0  74804-3 0  9994
2 32242  97.2601 108.2506 0158726 270.5319  87.7658 13.86167835666982

Acompanhe FENGYUN 1C DEB em tempo real com AllMySat

Download on the App Store